User: anonymous   Login
Location: Unspecified
(0.0000°N, 0.0000°E)
Time: 08:15:30
(UTC+00:00)
Language:

Shinsei - Orbit

View from above orbital plane
View from above orbital plane
View from above satellite
View from above satellite

Ground track
Ground track

The orbit data is extracted from the following two-line orbital elements,

1  5485U 71080A   18347.55067245  .00000058  00000-0  53402-4 0  9996
2  5485  32.0586  88.9391 0640702 267.1891  85.5247 12.74130559199433
Epoch (UTC): 13 December 2018 13:12:58
Eccentricity: 0.0640702
inclination: 32.0586°
perigee height: 869 km
apogee height: 1861 km
right ascension of ascending node: 88.9391°
argument of perigee: 267.1891°
revolutions per day: 12.74130559
mean anomaly at epoch: 85.5247°
orbit number at epoch: 19943

The dashed part of the orbit path shows where the satellite is in the earth's shadow,  

DLR